www.pogodaiklimat.ru

Погода и климат >> Архив погоды >> Япония >> Синдзё


ПОГОДА в Синдзё

  • Прогноз погоды в Синдзё
  • Монитор погоды в Синдзё

АРХИВ ПОГОДЫ в Синдзё

Время (UTC), дата Ветер
(напр.,м/с)
 
Видим.   Явления Облачность Т
(С)
Тd
(С)
f
(%)
Тe
(С)
Тes
(С)
Комфортность P
(гПа)
Po
(гПа)
Тmin
(С)
Tmax
(С)
R
(мм)
R24
(мм)
S
(см)
07 9.09 С 6 20 км н/о +29.8 +23.5 69 +40 +40 очень
душно
1008.1 996.7
08 9.09 С 3 20 км н/о +28.5 +23.4 74 +39 +39 очень
душно
1008.9 997.4
09 9.09 З 3 20 км н/о +27.5 +22.5 74 +36 +36 очень
душно
1009.6 998.1
10 9.09 З 2 20 км н/о +27.1 +22.9 78 +36 +36 очень
душно
1010.6 999.1
11 9.09 СЗ 1 20 км н/о +26.3 +23.2 83 +35 +35 очень
душно
1011.4 999.8
12 9.09 Ю 1 20 км н/о +25.3 +23.2 88 +34 +34 очень
душно
1012.2 1000.6 +31.7 0.0
13 9.09 Ю 1 20 км н/о +25.3 +23.4 89 +34 +34 очень
душно
1012.2 1000.6
15 9.09 В 1 20 км н/о +25.0 +23.3 90 +33 +33 очень
душно
1012.4 1000.8
16 9.09 С 1 20 км слаб. дождь н/о +25.2 +23.3 89 +34 +34 очень
душно
1012.4 1000.8
17 9.09 ЮЗ 1 20 км в посл. час дождь н/о +25.0 +22.9 88 +33 +33 очень
душно
1012.0 1000.4
18 9.09 В 1 20 км {дождь} н/о +24.4 +23.0 92 +32 +32 очень
душно
1011.9 1000.2 0.0
19 9.09 СВ 2 20 км н/о +24.9 +22.8 88 +33 +33 очень
душно
1011.8 1000.2
21 9.09 Ю 1 17 км н/о +24.3 +22.9 92 +32 +32 очень
душно
1012.6 1000.9
22 9.09 ЮЗ 2 11 км в посл. час дождь н/о +24.4 +23.4 94 +33 +33 очень
душно
1013.5 1001.8
23 9.09 З 3 20 км н/о +25.1 +22.4 85 +33 +33 очень
душно
1014.0 1002.3
00 10.09 З 5 20 км {дождь} н/о +27.9 +22.8 74 +37 +37 очень
душно
1014.1 1002.6 +23.9 0.5
01 10.09 З 4 20 км н/о +28.6 +21.9 67 +37 +37 очень
душно
1014.0 1002.5
02 10.09 З 5 20 км н/о +29.6 +21.6 62 +38 +38 очень
душно
1013.6 1002.1
04 10.09 З 6 20 км н/о +28.1 +20.9 65 +35 +35 очень
душно
1013.9 1002.4
05 10.09 З 6 20 км н/о +29.4 +21.1 61 +37 +37 очень
душно
1013.3 1001.8
06 10.09 СЗ 4 20 км н/о +27.9 +21.5 68 +36 +36 очень
душно
1013.4 1001.9
07 10.09 СЗ 2 20 км н/о +27.8 +22.1 71 +36 +36 очень
душно
1013.7 1002.2
08 10.09 С 3 20 км н/о +27.3 +21.4 70 +35 +35 очень
душно
1013.7 1002.1
09 10.09 С 3 20 км н/о +26.3 +21.9 77 +34 +34 очень
душно
1014.2 1002.6
10 10.09 СВ 3 20 км н/о +25.3 +21.8 81 +33 +33 очень
душно
1015.0 1003.3
11 10.09 С 1 20 км н/о +24.5 +21.8 85 +31 +31 очень
душно
1015.1 1003.4
12 10.09 Ю 1 20 км н/о +23.6 +21.9 90 +30 +30 очень
душно
1015.7 1004.0 +30.9
13 10.09 В 1 20 км н/о +22.9 +21.5 92 +31 +31 очень
душно
1015.9 1004.1
15 10.09 ЮВ 1 20 км н/о +22.4 +21.4 94 +29 +29 очень
душно
1015.9 1004.1
16 10.09 Ю 1 20 км н/о +22.4 +20.7 90 +29 +29 очень
душно
1015.2 1003.4
17 10.09 СВ 1 20 км н/о +22.5 +21.1 92 +30 +30 очень
душно
1014.9 1003.1
18 10.09 Ю 1 15 км н/о +22.3 +21.3 94 +29 +29 очень
душно
1014.4 1002.6
19 10.09 С 1 16 км н/о +21.8 +20.8 94 +28 +28 душно 1014.1 1002.3
20 10.09 СЗ 2 12 км н/о +22.0 +21.3 96 +29 +29 очень
душно
1014.2 1002.4
21 10.09 С 1 18 км н/о +21.8 +21.0 95 +28 +28 душно 1014.1 1002.3
22 10.09 СВ 3 4800 м слаб. дождь н/о +21.6 +20.8 95 +27 +27 душно 1014.6 1002.8
23 10.09 В 2 11 км слаб. дождь н/о +21.5 +19.8 90 +27 +27 душно 1014.6 1002.8
00 11.09 Ю 2 20 км в посл. час дождь н/о +22.6 +19.4 82 +29 +29 очень
душно
1013.5 1001.7 +21.4 5
01 11.09 СВ 3 19 км в посл. час дождь н/о +22.4 +21.2 93 +29 +29 очень
душно
1012.9 1001.1
02 11.09 С 3 12 км слаб. дождь н/о +22.6 +21.1 91 +30 +30 очень
душно
1011.6 999.9
03 11.09 С 4 3500 м слаб. дождь н/о +21.1 +20.9 99 +26 +26 душно 1011.6 999.8
04 11.09 З 1 7000 м слаб. дождь н/о +21.3 +20.8 97 +27 +27 душно 1011.2 999.4
05 11.09 ЮВ 2 20 км слаб. дождь н/о +21.8 +21.0 95 +28 +28 душно 1010.3 998.5
06 11.09 ЮЗ 3 20 км в посл. час дождь н/о +23.8 +21.7 88 +30 +30 очень
душно
1009.2 997.5 17
07 11.09 ЮВ 2 20 км н/о +23.6 +21.1 86 +30 +30 очень
душно
1009.0 997.3
08 11.09 Ю 3 20 км слаб. дождь н/о +23.3 +21.6 90 +31 +31 очень
душно
1008.8 997.1
09 11.09 ЮЗ 2 10 км слаб. дождь н/о +22.7 +21.9 95 +30 +30 очень
душно
1009.6 997.9
10 11.09 З 3 20 км в посл. час дождь н/о +21.7 +19.6 88 +27 +27 душно 1011.0 999.2
11 11.09 СЗ 6 20 км н/о +22.1 +18.5 80 +27 +27 душно 1011.9 1000.1
12 11.09 СЗ 4 20 км {дождь} н/о +21.7 +18.3 81 +26 +26 душно 1012.3 1000.5 +24.1 19
13 11.09 СЗ 5 20 км в посл. час дождь н/о +20.9 +18.7 87 +25 +25 комфорт 1012.5 1000.7
14 11.09 СЗ 5 20 км н/о +21.0 +17.4 80 +25 +25 комфорт 1012.6 1000.8
15 11.09 СЗ 4 20 км {дождь} н/о +20.2 +16.8 81 +23 +23 комфорт 1012.8 1000.9
16 11.09 СЗ 4 20 км н/о +19.5 +16.7 84 +22 +22 комфорт 1012.8 1000.9
17 11.09 СЗ 5 20 км н/о +19.2 +16.4 84 +21 +21 комфорт 1013.0 1001.1
18 11.09 СЗ 5 20 км {дождь} н/о +18.9 +16.0 83 +20 +20 1013.4 1001.5 0.5
19 11.09 СЗ 4 20 км н/о +19.2 +15.5 79 +21 +21 комфорт 1013.1 1001.2
20 11.09 С 5 20 км н/о +18.8 +14.9 78 +20 +20 1013.9 1002.0
21 11.09 СЗ 4 20 км н/о +18.2 +14.9 81 +18 +18 1014.3 1002.3
23 11.09 С 4 20 км н/о +21.3 +15.2 68 +24 +24 комфорт 1014.5 1002.7
00 12.09 СЗ 4 20 км н/о +22.2 +15.1 64 +26 +26 душно 1014.6 1002.8 +18.1 0.5
01 12.09 СЗ 8 20 км н/о +24.3 +13.5 51 +27 +27 жарко 1014.3 1002.6
02 12.09 СЗ 7 20 км н/о +23.4 +12.7 51 +26 +26 жарко 1014.2 1002.5
03 12.09 СЗ 6 20 км н/о +24.7 +14.2 52 +27 +27 жарко 1014.2 1002.5
04 12.09 СЗ 6 20 км н/о +24.2 +12.2 47 +26 +26 жарко 1014.4 1002.7
05 12.09 СЗ 6 20 км н/о +24.1 +11.8 46 +26 +26 жарко 1014.5 1002.8
06 12.09 З 7 20 км н/о +24.0 +10.7 43 +25 +25 комфорт 1014.4 1002.7
07 12.09 З 5 20 км н/о +22.8 +13.9 57 +26 +26 жарко 1015.0 1003.2
08 12.09 З 3 20 км н/о +21.9 +13.8 60 +25 +25 комфорт 1015.4 1003.6
09 12.09 З 1 20 км н/о +19.4 +15.3 77 +22 +22 комфорт 1016.0 1004.1
10 12.09 В 1 20 км н/о +17.4 +15.0 86 +19 +19 1017.0 1005.0
11 12.09 В 1 20 км н/о +16.4 +14.8 90 +17 +17 1017.4 1005.3
12 12.09 ЮВ 2 20 км н/о +15.8 +14.5 92 +16 +16 1017.7 1005.6 +25.1
13 12.09 ЮВ 2 20 км н/о +15.1 +14.2 94 +15 +15 1018.1 1005.9
15 12.09 Ю 1 20 км н/о +14.3 +13.7 96 +15 +15 1018.1 1005.9
16 12.09 штиль 0 20 км н/о +13.7 +13.1 96 +13 +13 1017.8 1005.6
18 12.09 Ю 2 300 м туман н/о +13.8 +13.8 100 +13 +13 1017.7 1005.5
19 12.09 Ю 2 2800 м в посл. час туман н/о +13.1 +13.1 100 +12 +12 1017.9 1005.7
20 12.09 СВ 1 2200 м дымка н/о +13.2 +13.2 100 +13 +13 1018.0 1005.8
21 12.09 СВ 2 4500 м дымка {туман} н/о +13.6 +13.6 100 +13 +13 1018.4 1006.2
22 12.09 СВ 2 8000 м дымка н/о +13.8 +13.5 98 +13 +13 1018.4 1006.2
23 12.09 СЗ 1 20 км н/о +14.7 +13.8 94 +16 +16 1018.8 1006.6
01 13.09 З 1 20 км н/о +18.3 +14.6 79 +20 +20 1018.5 1006.5
02 13.09 СЗ 2 20 км н/о +21.2 +15.7 71 +24 +24 комфорт 1017.4 1005.5
03 13.09 ЮВ 3 20 км н/о +23.1 +14.1 57 +27 +27 душно 1016.8 1005.0
04 13.09 ЮВ 3 20 км н/о +23.5 +14.5 57 +26 +26 жарко 1016.1 1004.4
05 13.09 ЮВ 4 20 км н/о +25.0 +14.5 52 +28 +28 жарко 1015.6 1003.9
06 13.09 В 4 20 км н/о +24.5 +14.6 54 +27 +27 жарко 1015.2 1003.5
08 13.09 В 6 20 км н/о +22.1 +15.2 65 +26 +26 душно 1015.9 1004.1
09 13.09 ЮВ 5 20 км н/о +20.5 +14.9 70 +23 +23 комфорт 1015.9 1004.0
10 13.09 ЮВ 4 20 км н/о +19.9 +14.9 73 +22 +22 комфорт 1016.9 1005.0
11 13.09 ЮВ 3 20 км н/о +19.6 +15.1 75 +22 +22 комфорт 1017.3 1005.4
13 13.09 ЮВ 3 20 км н/о +18.7 +15.0 79 +20 +20 1017.5 1005.5
14 13.09 ЮВ 3 20 км н/о +17.8 +15.1 84 +18 +18 1017.0 1005.0
15 13.09 ЮВ 3 20 км н/о +18.4 +14.9 80 +19 +19 1016.9 1004.9
16 13.09 Ю 2 20 км н/о +16.7 +14.7 88 +17 +17 1016.9 1004.8
17 13.09 ЮВ 3 20 км н/о +16.9 +14.4 85 +17 +17 1016.2 1004.2
18 13.09 ЮВ 2 20 км н/о +17.1 +14.2 83 +17 +17 1015.8 1003.8
19 13.09 ЮВ 3 20 км н/о +17.1 +14.2 83 +17 +17 1015.9 1003.9
21 13.09 СЗ 1 11 км н/о +14.2 +13.4 95 +15 +15 1016.8 1004.6
23 13.09 С 2 20 км н/о +18.7 +15.4 81 +20 +20 1016.6 1004.6
00 14.09 ЮВ 4 20 км н/о +22.3 +14.9 63 +26 +26 жарко 1015.8 1004.0 +13.6
01 14.09 ЮВ 4 20 км н/о +24.2 +15.2 57 +27 +27 жарко 1015.3 1003.6
02 14.09 Ю 3 20 км н/о +25.4 +15.7 55 +29 +29 душно 1014.5 1002.9
03 14.09 Ю 6 20 км н/о +26.0 +14.5 49 +28 +28 жарко 1013.7 1002.1
04 14.09 Ю 5 20 км н/о +26.7 +15.4 50 +30 +30 душно 1012.6 1001.0
05 14.09 ЮВ 4 20 км н/о +27.5 +16.2 50 +31 +31 душно 1012.1 1000.6
06 14.09 В 4 20 км н/о +26.1 +18.0 61 +31 +31 очень
душно
1011.9 1000.3
07 14.09 В 5 20 км н/о +25.8 +18.0 62 +30 +30 душно 1011.6 1000.0
08 14.09 В 4 20 км н/о +24.6 +18.3 68 +29 +29 душно 1011.8 1000.2
09 14.09 В 5 20 км н/о +23.2 +17.9 72 +29 +29 душно 1012.2 1000.5
10 14.09 ЮВ 4 20 км н/о +22.3 +18.1 77 +27 +27 душно 1012.9 1001.1
11 14.09 ЮВ 3 20 км н/о +22.2 +18.0 77 +27 +27 душно 1013.3 1001.5
12 14.09 В 3 20 км н/о +22.0 +18.0 78 +27 +27 душно 1013.3 1001.5 +27.9
13 14.09 В 2 20 км н/о +21.3 +17.9 81 +25 +25 комфорт 1012.9 1001.1
14 14.09 СЗ 2 20 км н/о +19.3 +18.0 92 +22 +22 комфорт 1012.5 1000.6
15 14.09 СВ 1 20 км н/о +18.7 +17.6 93 +21 +21 комфорт 1012.6 1000.7
16 14.09 Ю 2 19 км н/о +18.4 +17.6 95 +20 +20 1012.7 1000.8
17 14.09 СВ 1 20 км н/о +18.3 +17.5 95 +20 +20 1012.6 1000.7
18 14.09 ЮВ 1 19 км н/о +17.7 +17.1 96 +19 +19 1012.6 1000.6
19 14.09 З 1 20 км н/о +17.7 +17.1 96 +19 +19 1012.3 1000.3
20 14.09 СВ 1 17 км н/о +17.2 +16.7 97 +19 +19 1012.9 1000.9
21 14.09 Ю 1 16 км н/о +17.5 +16.9 96 +19 +19 1012.7 1000.7
22 14.09 З 1 20 км н/о +18.3 +17.0 92 +20 +20 1012.4 1000.5
23 14.09 СЗ 1 19 км н/о +19.2 +17.9 92 +22 +22 комфорт 1012.4 1000.5
00 15.09 С 2 20 км н/о +20.8 +18.0 84 +25 +25 комфорт 1012.5 1000.7 +16.8
01 15.09 СВ 2 20 км н/о +22.6 +18.8 79 +28 +28 душно 1011.7 1000.0
02 15.09 С 2 20 км н/о +26.0 +19.9 69 +32 +32 очень
душно
1011.0 999.4
03 15.09 ЮВ 2 20 км н/о +28.0 +19.8 61 +34 +34 очень
душно
1010.0 998.5
04 15.09 В 3 20 км н/о +28.0 +18.7 57 +33 +33 очень
душно
1009.4 997.9
05 15.09 В 3 20 км н/о +29.4 +18.5 52 +34 +34 очень
душно
1008.8 997.4
06 15.09 В 4 20 км н/о +28.0 +19.0 58 +33 +33 очень
душно
1008.7 997.2
07 15.09 В 4 20 км н/о +27.9 +19.4 60 +34 +34 очень
душно
1008.5 997.0
08 15.09 В 3 20 км н/о +26.5 +18.9 63 +32 +32 очень
душно
1008.8 997.3
09 15.09 В 5 20 км н/о +25.0 +18.5 67 +30 +30 душно 1009.0 997.4
10 15.09 В 5 20 км н/о +24.4 +17.4 65 +28 +28 душно 1009.4 997.8
11 15.09 ЮВ 2 20 км н/о +23.5 +16.8 66 +27 +27 душно 1009.8 998.1
12 15.09 В 5 20 км н/о +23.4 +15.7 62 +28 +28 душно 1009.8 998.1 +30.1
13 15.09 ЮВ 5 20 км н/о +22.7 +16.7 69 +27 +27 душно 1009.7 998.0
14 15.09 С 2 20 км н/о +20.5 +18.1 86 +25 +25 комфорт 1009.8 998.0
16 15.09 СВ 1 20 км н/о +19.4 +17.9 91 +23 +23 комфорт 1008.6 996.8
17 15.09 СВ 2 20 км н/о +18.7 +17.7 94 +21 +21 комфорт 1008.4 996.5
18 15.09 В 1 20 км н/о +18.6 +17.6 94 +21 +21 комфорт 1008.1 996.2
19 15.09 Ю 1 20 км н/о +19.0 +17.7 92 +22 +22 комфорт 1007.9 996.0
21 15.09 ЮЗ 1 20 км {дождь} н/о +18.5 +17.7 95 +21 +21 комфорт 1007.3 995.4
22 15.09 С 2 20 км н/о +18.6 +17.6 94 +20 +20 1007.2 995.3
23 15.09 СВ 1 20 км н/о +20.7 +18.1 85 +26 +26 душно 1006.8 995.0
00 16.09 С 2 20 км {дождь} н/о +22.0 +18.2 79 +27 +27 душно 1006.6 994.9 +18.2 0.0
01 16.09 С 2 20 км н/о +23.4 +18.5 74 +30 +30 очень
душно
1005.5 993.9
02 16.09 Ю 2 20 км н/о +24.8 +19.4 72 +30 +30 душно 1004.7 993.1
03 16.09 С 2 20 км н/о +25.4 +20.2 73 +31 +31 очень
душно
1003.8 992.3
04 16.09 С 2 20 км н/о +25.0 +20.5 76 +31 +31 очень
душно
1003.2 991.7
05 16.09 С 3 3800 м слаб. дождь н/о +22.6 +21.4 93 +30 +30 очень
душно
1003.2 991.6

 

Местоположение метеостанции Синдзё (Япония): широта 38.75 долгота 140.31 высота над уровнем моря 102 м.

В архиве по умолчанию представлена погода в Синдзё за последнюю неделю. Архивные данные за месяц целиком и за предыдущие месяцы, начиная с января 2011 года, Вы можете получить, выбрав интересующий диапазон дат из раскрывающегося списка и нажав кнопку "Ввод!".


*Определитесь, кто Вы:
робот инопланетянин человек

Внимание! Время в таблицах - всемирное. Для получения местного времени необходимо прибавить поправку, которая равна 9 ч.

Смотрите также архив погоды в соседних городах и на ближайших метеорологических станциях:

Погода в Сакате (Япония) (44 км)
Погода в Ямаге (Япония) (56 км)
Погода в Сендае (Япония) (74 км)
Погода в Исиномаки (Япония) (93 км)
Погода в Аките (Япония) (109 км)
Погода в Фукусиме (Япония) (110 км)
Погода в Офунато (Япония) (126 км)
Погода в Мориоке (Япония) (129 км)
Погода в Ниигате (Япония) (144 км)
Погода в Вакамацу (Япония) (146 км)

Пояснения к столбцам:

Ветер - указаны скорость ветра в м/с - средняя за 10 мин, порывы в срок и между сроками (в фигурных скобках) и направление, откуда дует ветер: С - северный, СВ - северо-восточный, В - восточный, ЮВ - юго-восточный, Ю - южный, ЮЗ - юго-западный, З - западный, СЗ - северо-западный.
Видимость - горизонтальная дальность видимости в метрах или километрах. При видимости от 1 до 10 км при отсутствии осадков обычно наблюдается дымка, при ухудшении видимости до 1 км и менее - туман. В сухую погоду видимость может ухудшаться дымом, пылью или мглою.
Явления - указаны атмосферные явления, наблюдавшиеся в срок или в последний час перед сроком; фигурными скобками обозначены явления, наблюдавшиеся между сроками (за 1-3 часа до срока); квадратными скобками обозначены град или гололедные отложения с указанием их диаметра в мм.
Облачность - указаны через наклонную черту общая и нижняя облачность в баллах и высота нижней границы облаков в метрах; квадратными скобками обозначены формы облаков: Ci - перистые, Cs - перисто-слоистые, Cc - перисто-кучевые, Ac - высококучевые, As - высокослоистые, Sc - слоисто-кучевые, Ns - слоисто-дождевые, Cu - кучевые, Cb - кучево-дождевые. Подробнее классификацию облаков см. в Атласе облаков (PDF).
T - Температура воздуха - температура, измеренная на высоте 2 м над землей.
Td - Температура точки росы - температура, при понижении до которой содержащийся в воздухе водяной пар достигнет насыщения.
f - Относительная влажность воздуха - влажноcть воздуха, измеренная на высоте 2 м над землей.
Te - Эффективная температура - температура, которую ощущает одетый по сезону человек в тени. Характеристика душности погоды. При расчете учитывается влияние влажности воздуха и скорости ветра на теплоощущения человека.
Tes - Эффективная температура на солнце - температура, которую ощущает человек, с поправкой на солнечный нагрев. Характеристика знойности погоды. Зависит от высоты солнца над горизонтом, облачности и скорости ветра. Ночью, в пасмурную погоду, а также при ветре 12 м/с и более поправка равна нулю.
P - Атмосферное давление - приведенное к уровню моря атмосферное давление.
Po - Атмосферное давление - измеренное на уровне метеостанции атмосферное давление.
Tmin - Минимальная температура - минимум температуры воздуха на высоте 2 м над землей.
Tmax - Максимальная температура - максимум температуры воздуха на высоте 2 м над землей.
R - Количество осадков - Количество выпавших осадков за период времени, мм. При наведении курсора мыши на число - период времени, за который выпало указанное количество осадков.
R24 - Количество осадков - Количество выпавших осадков за 24 часа, мм.
S - Снежный покров - Высота снежного покрова, см. При наведении курсора мыши на число - состояние снежного покрова и степень покрытия местности в баллах.